Lid_Strength_Index
1 1 1 1 1 2 2 2 2 2 2 2 2 2 2 2 3 1 3 2 2 1 1 1 1 1 1 3 3 3 6 8 7 7 7 4 5 4 3 4 4 3 3 3 2
1 1 1 1 2 2 2 2 2 2 2 2 2 2 2 3 1 3 1 0 0 0 2 3 3 2 3 4 3 4 6 7 5 5 6 5 5 4 4 4 4 4 3 2 2
1 1 1 1 1 2 2 2 2 2 2 2 2 2 3 1 2 3 0 0 -0 1 2 2 2 3 4 4 4 5 7 5 5 4 4 5 5 4 5 5 4 4 3 3 3
1 1 1 1 1 2 2 2 2 2 2 2 2 2 2 1 7 2 -0 -1 -1 1 2 3 3 4 5 6 4 6 5 5 4 4 4 5 4 5 4 4 3 3 2 3 3
1 1 1 1 1 2 2 2 2 2 2 2 2 2 1 3 3 1 -1 -0 1 2 3 3 4 5 6 5 5 6 5 5 4 4 4 4 5 5 4 3 2 2 3 3 3
1 2 2 1 1 2 2 2 2 2 2 2 2 2 2 5 1 1 1 1 1 2 3 3 4 4 5 5 6 5 5 5 4 4 4 5 5 5 4 3 3 3 3 3 3
1 2 2 2 2 2 2 2 3 2 2 2 2 1 3 4 -0 -1 1 1 1 2 3 3 3 4 4 6 5 5 7 5 5 5 5 4 6 6 4 3 3 3 3 3 2
1 2 2 2 2 2 3 3 3 3 2 2 1 1 4 -0 -1 0 -0 1 1 1 2 3 3 4 5 4 5 6 6 8 6 5 5 5 8 5 4 4 4 3 3 3 3
1 2 2 2 2 3 3 3 3 2 2 2 1 2 4 0 2 0 0 2 2 2 2 3 3 4 5 7 8 7 9 9 8 6 6 6 7 5 4 5 4 4 3 3 3
1 1 2 2 2 3 4 3 2 2 1 1 1 4 3 4 2 2 1 1 2 3 3 4 4 6 6 8 11 10 9 8 9 7 7 7 7 5 4 5 4 4 3 3 3
1 1 2 2 2 3 2 2 3 4 2 4 4 4 4 2 1 2 1 2 2 4 7 5 8 9 7 7 7 8 9 9 8 6 8 7 7 6 4 4 4 4 4 3 3
1 2 2 2 2 3 1 4 3 2 7 3 4 4 3 2 5 3 1 4 5 7 6 8 10 7 6 7 8 8 9 9 7 7 8 7 7 6 5 5 4 4 4 3 3
1 2 2 2 2 2 2 4 0 1 6 6 4 4 4 3 6 5 3 4 6 8 7 9 8 7 7 8 9 9 9 9 9 8 7 8 8 7 5 5 4 4 3 4 4
2 2 2 3 3 1 3 2 1 0 8 9 7 5 4 3 6 3 2 4 6 8 7 8 6 8 8 9 8 10 7 8 9 10 11 8 12 8 6 6 5 4 5 4 3
2 2 3 2 1 3 2 -1 -1 2 15 9 6 2 3 6 5 6 4 6 7 7 7 9 8 8 9 8 7 9 8 9 9 9 10 9 11 9 7 7 6 5 5 4 3
2 2 3 2 1 0 -1 -1 2 9 15 10 6 7 7 7 8 7 6 5 5 7 7 7 7 7 7 7 7 7 8 9 9 9 13 10 11 9 8 7 6 6 5 5 4
2 2 2 -0 3 -1 -1 3 10 13 10 11 9 7 7 8 9 8 8 9 8 10 10 8 8 7 7 8 8 8 9 13 14 14 14 10 11 10 7 6 6 6 5 4 4
2 2 1 -0 -1 -1 2 7 13 11 11 8 8 8 9 8 8 8 8 9 8 8 9 10 12 8 7 7 9 9 9 12 17 15 13 11 13 10 6 6 5 5 5 4 4
3 0 1 -0 -1 -0 5 12 12 11 9 8 8 9 9 8 8 8 8 8 7 7 10 10 10 7 7 7 7 9 11 8 12 11 14 12 9 7 6 7 6 6 5 5 4
2 3 3 -1 -1 2 9 11 10 8 8 7 10 9 10 9 10 9 9 7 8 6 6 8 11 8 7 6 7 8 7 12 11 16 17 13 12 11 9 8 6 6 5 5 4
3 6 2 -1 0 6 12 10 8 7 8 8 9 9 9 9 9 10 9 7 6 7 6 7 9 9 8 9 9 9 10 9 10 11 16 17 13 8 8 7 6 5 5 4 4
4 10 2 0 9 8 11 8 7 7 7 7 7 8 8 9 10 9 9 7 5 6 9 7 8 11 10 7 7 8 9 9 13 14 12 13 15 6 6 6 5 5 6 4 4
7 7 2 2 12 11 8 8 7 7 8 8 8 7 7 8 10 9 8 6 6 6 8 8 10 13 12 9 8 10 8 8 9 10 13 16 14 7 6 6 6 6 5 5 4
6 12 7 6 6 9 10 10 10 6 7 7 8 7 8 9 8 9 9 7 6 6 8 7 9 11 14 12 9 11 10 9 9 14 13 13 12 8 7 7 6 6 5 4 4
6 9 7 12 10 8 8 9 11 11 7 6 8 8 8 10 10 10 8 8 8 8 7 7 11 10 9 9 9 10 10 9 10 10 13 12 11 8 7 6 6 5 5 5 5
9 9 8 9 8 9 9 10 10 10 9 10 9 8 8 10 9 10 9 9 9 7 8 7 12 11 13 10 10 11 10 10 10 10 10 10 11 7 6 5 6 5 5 5 5
8 7 7 9 10 11 11 10 10 9 8 7 7 8 9 8 7 6 7 7 7 8 9 10 12 14 16 11 12 16 11 11 10 9 10 12 10 6 7 6 6 5 5 5 5